Погода в Советской

Россия / Ростовская область     49°00′34″N   42°07′12″E
темп.,
°C
ветер,
м/с
пор.,
м/с
влажн.,
%
обл.,
%
осадки,
мм/ч
давл.,
гПа
погр.,
м
18 апреля, вс
вс1800:00+8зсз37695 0.0 1021135
03:00+6ссз33755 0.0 102153
06:00+6с227595 0.0 102124
09:00+11с2156100 0.0 1021487
12:00+13с0148100 0.0 10201530
15:00+15всв124196 0.0 10181891
18:00+13св2454100 0.0 1018144
21:00+12в2257100 0.0 101837
19 апреля, пн
пн1900:00+11ююз2471100 0.0 1018152
03:00+10юв237994 0.0 1017100
06:00+10в2483100 0.0 1017181
09:00+12в556563 0.0 1017752
12:00+15в445773 0.1 10161463
15:00+14в3358100 0.2 10151117
18:00+13в346536 0.0 1016600
21:00+9всв3691100 0.0 1016154
20 апреля, вт
вт2000:00+9всв3693100 0.0 1016154
03:00+8в3895100 0.0 1015198
06:00+10всв51094100 0.0 1013468
09:00+10в91595100 2.1 1010542
12:00+10в71496100 10.2 1009714
15:00+12вюв111993100 13.1 10061046
18:00+16юв13218187 0.1 10041283
21:00+13юв10179495 9.3 1007849
21 апреля, ср
ср2100:00+11ююв91688100 0.1 1008655
03:00+11ю111685100 0.4 10101208
06:00+9ю91582100 0.1 1011972
09:00+10ююз81284100 0.1 10141049
12:00+12юз587697 0.4 10161172
15:00+14ююз4559100 0.6 10171244
18:00+12ю477697 0.2 1019302
21:00+10ююз498745 0.8 1021225
22 апреля, чт
чт2200:00+8юз378818 0.0 1021147
03:00+7юз3391100 0.0 102246
06:00+7юз228998 0.0 102354
09:00+12з23687 0.0 1024605
12:00+15з224845 0.1 10241770
15:00+17зсз3242100 0.1 10232046
18:00+14ссз5760100 0.0 1024329
21:00+12ссз2363100 0.0 102560